Dewpoint
46 47 47 48 49 51 54 57 58 58 59 62 63 64 64 65 66 67 68 69 70 70 71 71 71 71 71 72 72 72 72 72 72 72 72 72 72 72 71 71 71 71 72 71 71 71 70 71 70 70 70 70 69 69 69 68 66 67 66 66 66 66 65
46 47 48 49 50 50 52 55 57 58 59 61 63 64 64 65 66 67 68 69 70 70 71 71 72 71 71 71 72 72 72 72 72 73 73 72 72 72 72 71 71 71 71 71 70 71 70 70 70 70 70 70 69 68 69 68 66 65 66 66 65 66 65
46 47 48 49 50 51 52 53 56 58 58 60 63 64 64 65 66 67 68 69 70 70 71 71 72 72 71 71 71 72 72 72 73 73 73 72 72 72 72 71 71 71 71 71 70 71 70 70 70 70 69 69 69 68 68 68 67 65 66 65 65 65 65
48 47 48 50 51 52 52 52 55 57 58 59 62 63 64 65 65 67 68 69 70 70 70 71 71 72 72 71 71 71 72 72 73 73 73 72 72 72 71 71 71 71 71 71 70 71 71 70 69 70 71 69 69 69 68 68 66 65 65 65 65 65 65
48 48 48 49 50 52 52 53 54 56 57 59 62 64 64 65 66 66 68 69 70 70 70 71 71 72 72 72 72 72 72 72 72 73 73 73 72 72 72 70 71 71 71 71 71 71 71 70 69 70 70 69 69 69 68 67 66 65 65 65 64 65 65
47 49 49 49 50 51 52 53 53 54 56 58 61 63 64 65 65 66 67 69 70 70 71 71 71 72 72 72 72 72 72 72 73 73 73 73 73 72 72 71 70 71 71 71 71 71 71 70 69 69 69 69 68 69 68 67 66 65 65 65 64 64 65
46 49 49 49 49 51 52 53 54 54 56 58 60 63 64 64 65 65 66 68 69 70 70 71 71 71 72 72 72 72 72 72 73 73 73 73 73 72 72 72 71 71 71 71 71 71 70 70 70 69 69 69 68 68 68 67 66 65 65 64 64 64 64
45 47 49 49 49 50 51 54 55 55 56 58 60 62 64 64 65 65 66 67 69 70 70 71 71 71 72 72 72 72 72 72 73 73 73 73 73 72 72 72 72 71 72 71 71 71 71 70 69 70 69 69 68 68 67 67 66 65 65 64 64 64 64
45 47 48 49 49 49 50 53 56 57 57 59 60 62 64 64 64 65 66 67 68 69 70 70 71 71 72 72 72 72 72 73 73 73 73 73 72 72 72 72 72 72 71 71 71 71 71 70 69 69 69 68 68 68 67 67 66 65 64 64 64 64 64
45 47 48 49 49 49 50 52 56 59 59 60 61 63 64 64 64 65 65 66 68 68 69 70 71 71 72 72 72 72 72 73 73 73 73 72 72 72 72 72 72 72 72 72 71 71 71 71 70 69 69 69 68 68 67 67 66 65 64 64 64 64 64
47 48 48 49 50 50 51 52 55 58 60 60 62 63 64 64 64 64 65 66 67 68 69 70 71 71 71 72 72 72 72 72 73 73 73 72 72 72 72 72 71 72 72 71 71 71 71 71 70 69 69 69 68 68 67 67 66 66 65 65 65 64 64
48 49 50 50 50 51 52 55 57 58 60 61 62 63 64 64 64 64 65 66 67 68 69 70 70 71 71 71 72 72 72 72 72 72 73 72 72 72 72 72 72 71 72 71 71 71 71 71 70 70 69 69 68 68 67 67 67 66 65 64 65 64 64
48 50 51 50 52 52 54 57 58 58 59 60 61 63 64 64 64 64 65 66 67 68 69 70 70 71 71 71 71 72 72 72 72 73 72 73 72 72 72 72 72 71 71 71 71 71 71 71 70 70 69 69 68 68 68 67 67 66 66 65 65 65 64
55 49 50 51 52 52 55 57 58 59 59 59 60 62 64 64 64 64 65 65 66 68 69 69 70 71 71 71 71 72 72 72 72 73 73 73 73 72 72 72 72 72 71 71 71 71 71 70 70 70 70 69 69 68 68 67 67 66 66 65 65 65 64
48 48 49 50 51 52 54 57 58 58 59 60 60 61 63 64 64 64 65 65 66 67 68 69 70 70 71 71 71 72 72 72 72 73 73 73 73 73 72 72 72 72 71 71 71 71 71 71 70 70 70 70 69 69 68 67 67 67 66 66 65 65 64
48 48 49 50 51 52 54 57 58 58 60 61 61 61 63 64 64 64 64 64 65 66 68 69 70 70 71 71 71 72 72 72 72 72 73 73 72 72 72 72 71 71 71 71 71 71 71 70 70 70 70 70 70 69 69 68 68 65 61 63 66 65 65
48 48 48 50 51 51 53 56 58 59 60 61 62 62 63 64 64 64 64 64 65 66 67 68 69 70 70 71 71 72 72 72 72 72 72 72 72 72 72 72 71 71 71 71 71 71 70 70 70 70 70 70 70 69 69 69 68 62 61 61 63 65 65
48 48 48 49 50 51 53 55 57 59 60 61 62 63 63 64 64 64 64 64 64 65 66 67 68 69 70 70 71 72 72 72 72 72 72 72 72 72 72 72 71 71 70 70 70 71 71 70 69 69 70 70 70 70 69 69 64 60 60 61 61 63 66
51 51 50 51 53 54 54 55 57 59 60 60 61 63 63 64 64 64 64 64 64 64 65 66 67 68 69 70 71 72 72 72 72 72 72 72 72 72 72 72 71 71 70 70 70 70 71 70 70 70 70 70 70 70 70 69 63 60 59 60 60 61 64
53 53 52 52 53 53 55 56 57 59 60 61 61 62 63 65 64 65 65 64 64 64 65 66 67 68 69 69 70 71 72 72 71 71 71 72 72 72 72 72 71 71 70 70 70 70 71 70 70 70 71 71 70 70 70 70 62 59 58 59 60 61 63
53 54 53 53 54 55 55 56 57 58 59 60 61 61 63 64 65 65 65 65 65 64 65 65 66 67 68 69 70 71 71 71 71 71 71 71 72 72 72 72 71 71 70 70 70 70 71 70 70 70 71 71 71 70 70 70 60 58 58 58 58 60 62
53 54 54 54 55 55 56 55 55 56 58 61 62 62 62 63 64 65 64 65 65 64 64 65 66 67 68 69 69 70 71 71 71 71 71 71 71 72 72 72 71 71 71 70 71 71 71 71 71 71 71 71 71 71 70 69 58 58 58 57 58 59 64
44 51 54 55 55 54 55 55 56 57 60 61 63 63 63 62 63 64 65 65 64 64 64 64 65 65 67 68 69 70 71 71 71 71 71 71 71 71 71 72 72 71 71 71 71 71 71 71 71 71 71 71 70 70 69 65 59 57 56 57 57 59 65
43 47 49 52 57 59 62 63 61 60 62 64 64 65 65 64 63 64 64 65 65 64 64 64 64 65 66 67 68 69 70 71 71 71 71 71 71 71 71 72 72 72 72 71 71 71 71 71 71 71 71 70 70 69 67 66 60 56 55 55 56 60 66
54 34 42 50 54 57 59 61 62 62 65 66 66 66 66 65 64 64 64 65 64 64 64 64 63 64 64 66 67 68 69 70 71 71 71 71 71 71 71 72 72 72 72 72 71 71 71 71 70 70 70 70 69 64 67 67 61 54 55 55 55 61 66
64 62 61 64 61 57 61 63 64 64 63 65 67 68 68 67 66 65 65 65 64 64 64 64 64 64 63 64 66 67 68 69 70 71 71 71 72 72 72 72 72 72 72 71 71 71 71 70 70 69 69 68 67 66 67 66 63 58 54 54 54 59 66
66 66 65 65 66 67 65 65 65 64 63 64 66 67 68 68 67 66 66 65 65 64 63 63 64 64 63 64 64 66 67 69 70 71 72 72 72 73 73 73 72 72 72 71 71 70 70 69 69 68 67 66 66 65 64 64 62 59 52 52 54 58 61
66 66 67 67 67 66 66 68 67 65 64 64 65 66 67 68 68 67 67 66 65 65 64 64 63 63 63 63 64 65 67 69 70 71 72 73 73 73 73 73 73 72 71 70 70 69 68 67 67 66 65 64 64 64 63 61 59 58 53 53 54 56 59
64 65 67 67 65 65 66 67 68 69 68 69 69 69 69 68 68 68 67 67 66 66 65 64 63 63 63 64 64 66 68 70 71 72 73 73 73 73 72 72 71 70 69 69 68 68 66 66 65 64 64 63 63 63 62 61 60 56 58 54 54 54 56
64 65 66 66 65 66 66 66 66 66 68 69 70 70 70 69 69 69 68 68 69 68 67 66 66 64 64 66 67 68 70 72 72 73 73 73 73 73 72 71 70 69 69 68 67 66 65 65 64 64 64 63 62 62 61 60 60 57 57 57 54 54 54
63 64 65 65 65 66 66 67 67 67 68 69 69 69 69 69 69 68 68 69 71 72 72 71 71 69 68 69 70 71 73 73 73 73 73 73 72 72 71 69 69 68 67 67 66 65 64 64 64 64 63 62 61 60 60 60 60 59 58 56 54 54 53
63 64 65 65 65 65 65 66 67 67 67 67 68 69 69 69 69 68 67 69 71 73 74 74 73 72 71 72 72 73 73 73 73 72 72 72 71 70 69 68 67 66 66 65 64 64 63 63 63 63 62 62 61 61 60 60 60 59 59 58 56 55 54
63 63 64 65 65 65 64 64 65 65 66 66 67 68 68 68 69 69 68 69 71 72 73 72 73 72 73 73 73 73 73 72 71 70 68 68 68 68 67 66 66 65 64 64 64 63 63 63 62 62 62 62 61 61 61 60 59 59 59 58 57 57 57
62 63 64 65 65 65 64 64 64 64 65 65 66 67 68 68 68 68 69 70 73 73 72 71 70 71 70 71 71 70 70 69 68 67 67 67 67 66 66 65 64 65 64 63 63 63 63 62 62 62 62 61 61 61 61 60 59 59 59 58 57 57 56
61 62 63 65 65 66 65 64 64 64 65 65 66 67 68 68 68 68 68 69 70 69 68 67 66 67 67 67 67 67 67 67 67 66 65 64 62 60 63 65 65 64 61 61 64 64 63 63 62 62 62 62 62 62 61 61 60 59 55 58 55 56 56
60 61 62 65 66 66 65 64 64 64 65 65 66 67 67 67 67 68 68 68 68 68 67 67 67 67 67 67 67 66 66 65 65 63 62 60 58 57 53 49 45 53 62 60 56 57 58 57 62 63 62 62 63 63 62 61 61 55 51 50 49 49 51
60 61 63 64 65 65 65 64 65 65 65 65 66 67 67 67 67 67 68 68 68 68 67 67 67 67 66 66 66 65 64 64 63 62 62 62 60 58 57 55 51 42 42 47 49 50 53 53 53 55 58 62 63 59 57 58 53 49 49 48 47 47 47
59 61 62 63 64 65 66 66 64 64 65 65 66 66 66 67 67 67 67 67 67 67 66 65 65 65 65 65 65 64 63 63 62 62 61 60 60 59 59 58 55 53 44 41 44 44 43 47 50 51 53 55 57 57 57 52 49 48 47 47 46 46 46